Location: ???
(60.6398°N, 46.9067°E)
Time: 07:38:30
(UTC+00:00)

Daily predictions for brighter satellites

Satellite Brightness Start Highest point End
(mag) Time Altitude Azimuth Time Altitude Azimuth Time Altitude Azimuth
PAYLOAD B 4.2 12:32:16 10° SSE 12:37:47 79° ENE 12:43:19 10° NNW
SAR-Lupe-1 4.2 12:35:52 10° NNE 12:39:28 62° ESE 12:43:01 10° S
Cosmos 1633 Rocket 4.4 12:35:24 10° NNW 12:39:38 43° W 12:43:49 10° SSW
Cosmos 1869 4.2 12:36:32 10° SW 12:40:20 46° WNW 12:44:10 10° N
Cosmos 2360 Rocket 3.2 12:37:48 10° SSE 12:42:42 31° ESE 12:47:37 10° NE
Cosmos 2369 Rocket 3.1 12:38:16 10° NW 12:43:11 30° N 12:48:07 10° ENE
H-2A R/B 4.2 12:39:13 10° SSW 12:43:29 40° W 12:47:45 10° NNW
Cosmos 1356 Rocket 4.4 12:40:16 10° SW 12:44:26 47° WNW 12:48:37 10° N
Cosmos 1346 Rocket 3.0 12:41:06 10° N 12:44:57 48° ENE 12:48:49 10° SE
ISS -1.0 12:42:43 10° SW 12:45:02 17° S 12:47:21 10° SE
Cosmos 1666 4.4 12:43:58 10° NNE 12:45:54 13° NE 12:47:50 10° E
Cosmos 1782 4.1 12:44:06 10° SE 12:47:16 23° E 12:50:26 10° NE
Cosmos 1980 Rocket 2.4 12:42:35 10° SW 12:48:19 75° NW 12:54:04 10° NE
Cosmos 1606 3.2 12:44:55 10° SSE 12:48:30 42° E 12:52:08 10° NNE
Helios 1A Rocket 2.9 12:45:28 10° SSE 12:49:32 63° ENE 12:53:36 10° NNW
Radarsat Rocket 3.9 12:44:12 10° SE 12:50:11 74° ENE 12:56:01 10° NNW
SMAP 3.6 12:48:30 10° SE 12:52:46 37° ENE 12:57:05 10° N
Cosmos 1315 Rocket 4.2 12:50:26 10° SE 12:53:24 20° E 12:56:25 10° NE
Cosmos 921 Rocket 4.3 12:50:23 10° NNW 12:53:36 21° NE 12:56:51 10° E
Cosmos 1328 Rocket 3.5 12:50:34 10° S 12:54:54 86° ESE 12:59:16 10° NNE
CZ-4B R/B 2.2 12:52:25 10° NNE 12:55:44 36° E 12:59:01 10° SSE
NOSS 2-3 (C) 4.2 12:50:54 10° WSW 12:55:54 78° NNW 13:02:20 10° ENE
CZ-4C R/B 2.7 12:52:47 10° NNE 12:56:01 83° ESE 12:59:11 10° SSW
METEOR-M 4.2 12:50:46 10° SSE 12:56:07 89° WSW 13:01:31 10° NNW
Meteor 1-11 Rocket 4.2 12:50:42 10° NNW 12:56:21 42° ENE 13:02:00 10° SE
Cosmos 2333 Rocket 3.7 12:53:06 10° SE 12:56:51 18° E 13:00:38 10° ENE
Cosmos 304 Rocket 3.7 12:52:12 10° NNW 12:57:03 81° NE 13:01:53 10° SE
Cosmos 2279 Rocket 4.1 12:50:58 10° N 12:57:08 56° ENE 13:03:17 10° SE
NOSS 2-2 (E) 4.4 12:53:45 10° SSW 12:57:19 36° SE 13:01:37 10° ENE
APEX 3.6 12:56:11 10° WSW 12:58:45 34° NW 13:01:32 10° NE
ALOS 2.3 12:56:00 10° SSE 13:00:42 89° W 13:05:24 10° NNW
ATLAS 2AS CENTAUR R/B 3.8 12:54:09 10° S 13:01:24 39° SE 13:08:30 10° ENE
ERS-2 4.1 12:58:40 10° N 13:01:38 24° NW 13:04:36 10° WSW
Cosmos 1400 Rocket 3.2 12:58:53 10° S 13:02:47 45° E 13:06:40 10° NNE
Cosmos 1634 Rocket 4.0 12:56:54 10° NNW 13:03:08 81° ENE 13:09:19 10° SSE
Okean O Rocket 1.6 12:59:58 10° SSE 13:04:19 84° ENE 13:08:43 10° NNW
Cosmos 332 Rocket 4.4 12:59:39 10° NW 13:04:30 65° WSW 13:09:19 10° SSE
Ariane Rocket 4.5 13:03:30 10° ENE 13:06:33 16° NE 13:09:36 10° N
Cosmos 292 Rocket 4.3 13:02:17 10° NNW 13:06:54 39° NE 13:11:28 10° ESE
Cosmos 2322 Rocket 2.3 13:01:44 10° SSW 13:07:18 64° ESE 13:12:51 10° NE
Cosmos 1484 Rocket 3.7 13:04:55 10° S 13:08:52 55° W 13:12:52 10° NNW
Meteor 1-14 Rocket 4.4 13:06:01 10° NNW 13:12:03 86° WSW 13:17:56 10° SSE
Cosmos 2228 Rocket 3.2 13:07:43 10° S 13:12:14 61° E 13:16:48 10° NNE
NOAA 12 4.5 13:08:28 10° SE 13:13:25 41° ENE 13:18:21 10° NNW
SL-16 R/B 2.3 13:08:14 10° SSW 13:13:54 75° SE 13:19:23 11° NE
Cosmos 1844 Rocket 4.1 13:12:22 10° NW 13:17:38 43° WSW 13:22:52 10° S
Cosmos 1697 Rocket 3.4 13:12:12 10° WSW 13:17:38 45° NNW 13:22:47 11° NE
Okean-O 3.1 13:14:30 10° SE 13:18:35 37° ENE 13:22:40 10° N
Cosmos 2344 4.0 13:10:52 10° W 13:18:50 76° N 13:29:13 10° E
Cosmos 2219 Rocket 3.4 13:15:38 10° SSE 13:19:59 24° ESE 13:23:29 13° ENE
Meteor 1-26 Rocket 4.3 13:15:33 10° S 13:21:14 61° E 13:26:48 10° NNE
CORIOLIS 4.3 13:16:56 10° SE 13:22:15 56° ENE 13:27:36 10° NNW
Cosmos 1515 Rocket 3.6 13:18:00 10° SSW 13:22:20 84° WNW 13:26:44 10° NNE
Cosmos 1933 3.3 13:18:34 10° SSW 13:22:36 88° W 13:26:40 10° NNE
Cosmos 1302 Rocket 4.3 13:17:56 10° NW 13:23:15 73° WSW 13:28:29 10° SSE
Cosmos 1151 Rocket 3.5 13:19:24 10° SSW 13:23:44 62° WNW 13:28:06 10° N
Cosmos 1707 Rocket 4.3 13:20:01 10° SSE 13:24:01 33° E 13:28:02 10° NNE
Cosmos 1812 4.3 13:22:38 10° SE 13:25:09 17° E 13:26:05 16° ENE
Cosmos 1048 Rocket 4.2 13:20:12 10° SSW 13:25:31 64° ESE 13:30:34 12° NE
RESURS DK-1 4.2 13:24:51 10° SE 13:27:02 14° ESE 13:28:08 13° E
SAR-Lupe-4 4.5 13:24:56 10° N 13:28:25 47° WNW 13:31:53 10° SW
SJ-7 4.4 13:25:05 10° SSE 13:29:17 90° ENE 13:33:27 10° NNW
Feng Yun 1-1 Rocket 4.1 13:24:17 10° SSE 13:29:38 71° ENE 13:35:03 10° NNW
Cosmos 1939 Rocket 4.4 13:29:35 16° ENE 13:30:00 16° NE 13:32:30 10° N
Cosmos 1943 Rocket 2.8 13:25:00 10° NW 13:30:15 36° NNE 13:34:45 13° E
AQUARIUS 4.2 13:26:05 10° SE 13:30:31 59° ENE 13:34:59 10° NNW
USA 215 4.2 13:24:57 11° E 13:30:35 35° SE 13:36:30 10° SSW
Cosmos 2297 3.9 13:25:01 10° NW 13:30:38 52° NE 13:36:13 10° ESE
SeaSat 1 3.2 13:28:46 12° E 13:32:39 33° NNE 13:37:04 10° NW
Cosmos 1908 Rocket 4.2 13:30:35 10° N 13:34:37 32° ENE 13:38:36 10° SE
Cosmos 1340 3.3 13:33:48 10° NNW 13:37:33 59° WSW 13:41:17 10° S
Cosmos 1500 3.3 13:33:53 10° N 13:37:37 51° ENE 13:41:18 10° SSE
Cosmos 2237 4.4 13:32:03 10° SSW 13:37:39 57° ESE 13:42:18 15° NE
COSMO-SKYMED 1 4.5 13:38:45 13° E 13:38:45 13° E 13:39:53 10° ESE
Elektron 3 3.9 13:35:14 10° W 13:38:07 87° N 13:41:22 15° E
Cosmos 1602 4.3 13:35:59 10° NNW 13:39:49 62° W 13:43:40 10° S
Cosmos 1536 3.1 13:41:04 10° N 13:44:58 44° ENE 13:48:50 10° SE
Meteor 1-5 Rocket 4.1 13:39:39 10° NNW 13:45:22 81° ENE 13:50:51 10° SSE
IRS-1C Rocket 4.1 13:40:05 10° SSE 13:45:23 89° ENE 13:50:43 10° NNW
CSL-04 Rocket 4.1 13:41:11 10° ESE 13:45:59 37° NE 13:50:51 10° NNW
ASTEX 1 4.4 13:41:37 10° N 13:46:25 48° WNW 13:51:09 10° SSW
NOSS 2-2 (D) 3.7 13:43:58 10° SW 13:47:46 58° SE 13:50:44 21° ENE
Lacrosse 4 Rocket 2.5 13:44:20 10° WNW 13:47:59 29° N 13:50:03 19° NE
H-2A R/B 3.4 13:44:36 10° N 13:48:20 33° WNW 13:52:01 10° WSW
COSMOS 2428 3.5 13:43:49 10° S 13:48:50 33° ESE 13:52:04 19° ENE
Cosmos 1689 Rocket 2.0 13:47:46 16° NNE 13:50:10 78° ESE 13:53:12 10° SSW
Cosmos 1441 Rocket 4.0 13:47:06 10° N 13:50:36 30° ENE 13:54:00 10° ESE
SL-08 R/B 4.5 13:46:28 10° N 13:51:10 43° WNW 13:55:48 10° SW
Iridium 82 4.4 13:48:16 10° S 13:51:48 76° E 13:55:27 10° N
YAOGAN 6 3.1 13:50:25 10° SE 13:53:41 35° ENE 13:57:01 10° N
H-2A R/B 3.5 13:54:30 17° NE 13:54:32 17° NE 13:57:41 10° N
YAOGAN 1 3.2 13:51:01 10° ESE 13:54:55 33° ENE 13:58:49 10° N
H-2A R/B 2.5 13:51:32 10° SSE 13:55:14 84° ENE 13:58:58 10° NNW
PSLV R/B 4.3 13:52:21 15° NNE 13:55:35 46° E 13:59:35 10° S
NOSS 3-1 (C) 3.8 13:51:53 10° WNW 13:58:25 73° N 14:04:28 18° E
NOSS 2-3 (E) 4.4 13:53:44 10° W 13:58:58 68° N 14:03:32 21° ENE
CSL-04 Debris 4.5 13:54:15 10° SE 13:59:23 44° ENE 14:04:32 10° NNW
Cosmos 1733 Rocket 3.0 13:56:23 10° NNW 14:00:47 88° ENE 14:05:10 10° SSE
Envisat 2.9 13:56:19 10° SSE 14:01:21 67° ENE 14:06:25 10° NNW
CZ-4 R/B 1.7 13:58:50 10° SE 14:02:28 39° ENE 14:06:05 10° N
Meteor 1-28 Rocket 4.1 14:00:15 10° N 14:03:53 48° WNW 14:07:31 10° SW
Cosmos 1867 3.5 13:58:38 10° WNW 14:04:09 76° NNE 14:08:38 16° ESE
Lacrosse 5 rocket 3.5 14:03:05 10° SSE 14:04:40 12° SE 14:05:18 12° SE
Tsikada Rocket 4.5 13:58:33 10° SSW 14:04:55 65° WNW 14:11:17 10° NNE
USA 229 DEB 3.8 13:59:02 10° WNW 14:06:00 74° N 14:11:27 19° E
USA 229 3.8 13:59:09 10° WNW 14:06:06 74° N 14:11:32 19° E
Cosmos 2333 4.4 14:01:15 10° SSW 14:06:49 54° ESE 14:10:26 22° NE
Cosmos 1992 Rocket 4.2 14:02:41 10° NW 14:07:55 75° WSW 14:13:08 10° SSE
NOSS 2-3 (D) 4.4 14:04:28 10° W 14:09:44 68° N 14:13:52 24° ENE
FengYun 1-2 T 4.2 14:04:37 10° SE 14:10:03 64° ENE 14:15:32 10° NNW
NOSS 3-1 (A) 3.8 14:04:43 10° W 14:11:12 72° N 14:16:22 22° E
Cosmos 2322 3.8 14:06:35 10° SSW 14:12:13 63° ESE 14:15:49 23° NE
SL-4 R/B 4.1 14:10:27 10° S 14:12:36 14° SSE 14:13:54 13° SE
Cosmos 2278 Rocket 2.9 14:08:00 10° NW 14:13:34 57° WSW 14:19:05 10° SSE
NOSS 3-4 (A) 3.8 14:08:04 10° SSW 14:13:57 51° SE 14:17:35 25° ENE
NOSS 8 (H) 4.3 14:10:57 10° SW 14:14:02 72° SSE 14:15:06 40° ENE
NOSS 3-4 (C) 3.8 14:08:10 10° SSW 14:14:03 51° SE 14:17:41 25° ENE
ARGOS 4.4 14:14:56 22° NE 14:14:59 22° NE 14:18:58 10° N
Genesis I 3.4 14:12:10 10° WNW 14:16:06 69° SW 14:19:17 15° SE
SL-16 R/B 4.1 14:12:47 10° NNE 14:17:55 29° NW 14:23:03 10° W
Meteor 2-6 Rocket 4.0 14:13:05 10° S 14:18:26 70° ESE 14:23:47 11° NNE
COSMOS 2455 2.9 14:12:36 10° WSW 14:18:39 79° NW 14:22:28 24° NE
COBE Rocket 3.8 14:16:08 16° NNE 14:19:42 54° E 14:24:16 10° S
NOAA 11 4.4 14:14:30 10° SE 14:19:42 47° ENE 14:24:57 10° NNW
Sich 1 Rocket 4.0 14:16:32 10° N 14:20:43 38° ENE 14:22:32 26° ESE
ISS -0.5 14:20:17 10° SW 14:20:50 10° SSW 14:21:23 10° SSW
Cosmos 1666 2.5 14:18:33 10° N 14:22:19 63° ENE 14:26:02 10° SSE
Cosmos 1782 3.3 14:19:20 10° SSW 14:23:17 61° WNW 14:26:53 12° N
Cosmos 1606 4.4 14:20:57 10° SW 14:24:21 31° WNW 14:27:49 10° N
NOSS 2-2 (C) 3.5 14:21:25 10° WSW 14:25:21 83° SSE 14:27:20 34° ENE
Okean 2 Rocket 4.1 14:21:31 10° N 14:24:34 28° NE 14:24:34 28° NE
Cosmos 2360 Rocket 2.2 14:20:34 10° SW 14:26:16 83° NW 14:29:55 23° NE
CZ-2D R/B 4.2 14:27:30 31° NNE 14:27:30 31° NNE 14:30:04 10° N
CZ-4B R/B 3.1 14:24:54 10° N 14:28:04 33° WNW 14:31:16 10° SW
Cosmos 2369 Rocket 2.4 14:22:57 10° NW 14:28:26 48° NE 14:30:50 30° E
Cosmos 1782 Rocket 3.6 14:24:53 10° N 14:29:11 51° ENE 14:33:26 10° SE
Cosmos 1315 Rocket 3.0 14:25:32 10° SSW 14:29:33 72° WNW 14:32:32 18° NNE
SMAP 4.0 14:25:31 10° S 14:30:04 51° W 14:34:39 10° NNW
Cosmos 1092 Rocket 4.2 14:26:04 10° SSE 14:32:00 45° E 14:37:54 10° NNE
Cosmos 921 Rocket 2.8 14:28:25 10° NNW 14:32:39 69° ENE 14:35:52 17° SE
Cosmos 1980 Rocket 3.3 14:27:54 10° W 14:33:09 36° NNW 14:36:16 21° NNE
Meteor 1-10 Rocket 4.1 14:27:48 10° S 14:33:21 78° ESE 14:38:48 11° NNE
NOAA 15 4.5 14:28:22 10° SSE 14:33:35 69° ENE 14:38:50 10° NNW
CZ-4 R/B 4.3 14:30:09 10° SSE 14:34:19 75° ENE 14:38:30 10° NNW
Cosmos 1975 4.3 14:30:47 10° N 14:32:31 21° NNE 14:32:31 21° NNE
NOSS 8 (F) 4.3 14:31:23 10° WSW 14:34:28 75° NNW 14:35:00 59° NE
OPS 8737 4.3 14:32:40 10° W 14:35:39 54° N 14:35:42 54° N
SL-16 R/B 4.2 14:32:43 10° SE 14:33:10 11° SE 14:33:10 11° SE
Cosmos 1400 Rocket 4.4 14:35:42 10° SW 14:39:26 33° WNW 14:42:56 11° N
Meteor 1-11 Rocket 4.5 14:34:14 10° NNW 14:40:05 59° W 14:45:56 10° S
Cosmos 2333 Rocket 2.2 14:34:27 10° SSW 14:40:08 63° ESE 14:42:44 33° NE
Okean O Rocket 4.3 14:38:01 10° SW 14:41:16 20° W 14:44:32 10° NW
Cosmos 1743 3.4 14:37:47 10° N 14:40:30 37° NNE 14:40:30 37° NNE
Uosat 12 SS-18 rocket 4.3 14:36:16 10° WNW 14:41:51 83° NNE 14:43:48 37° ESE
Exosat Rocket 3.8 14:37:33 10° S 14:42:22 44° ESE 14:43:21 39° E
Ariane Rocket 3.2 14:43:04 36° ESE 14:44:30 46° ENE 14:49:21 10° NNW
Cosmos 1862 Rocket 3.4 14:41:19 10° S 14:45:40 72° E 14:47:38 32° NNE
Cosmos 494 Rocket 4.2 14:40:32 10° SW 14:45:48 71° NW 14:48:54 25° NNE
NOSS 2-3 (C) 4.4 14:41:41 10° WNW 14:47:09 71° N 14:50:03 35° E
Cosmos 2242 Rocket 3.7 14:42:43 10° S 14:47:11 54° E 14:48:07 46° NE
Cosmos 292 Rocket 4.3 14:42:37 10° NW 14:47:27 62° WSW 14:52:15 10° SSE
NOSS 2-2 (E) 3.6 14:43:27 10° WSW 14:47:33 80° NNW 14:49:02 44° ENE
Cosmos 2237 Rocket 2.7 14:42:24 10° S 14:47:35 37° ESE 14:48:05 36° E
TIMED 4.5 14:44:25 10° SSW 14:48:48 86° WNW 14:50:18 41° NNE
Cosmos 2322 Rocket 2.9 14:46:09 10° WSW 14:51:38 48° NNW 14:54:39 25° NNE
ATLAS 2AS CENTAUR R/B 3.0 14:43:47 10° SW 14:51:51 82° SSE 14:55:56 33° ENE
Meteor 1-27 Rocket 3.7 14:47:40 10° S 14:53:26 74° ESE 14:58:20 15° NNE
S3M 4.1 14:47:51 10° N 14:53:58 51° ENE 14:57:35 24° SE
Okean-O 3.6 14:50:42 10° S 14:55:00 49° W 14:59:21 10° NNW
Cosmos 1269 Rocket 4.2 14:51:18 10° SW 14:56:36 70° NW 14:59:25 28° NNE
SL-16 R/B 3.0 14:53:01 10° WSW 14:58:27 44° NNW 15:01:14 26° NNE
Cosmos 1812 2.7 14:56:34 10° SSW 15:00:27 83° WNW 15:01:12 56° N
Cosmos 1707 Rocket 4.4 14:57:24 10° SW 15:01:45 50° WNW 15:05:20 15° N
Cosmos 1763 Rocket 4.1 14:58:07 10° NNW 15:02:30 37° NNE 15:02:30 37° NNE
Cosmos 1697 Rocket 3.9 14:57:58 10° WNW 15:02:53 29° N 15:04:31 25° NNE
Cosmos 2219 Rocket 2.1 14:57:36 10° SSW 15:03:14 80° SE 15:05:13 42° NE
Cosmos 1656 Rocket 3.9 14:58:51 10° NW 15:04:04 44° NNE 15:04:30 43° NE
RESURS DK-1 2.4 15:00:14 10° SSW 15:04:03 61° SSE 15:04:03 61° SSE
Cosmos 1939 Rocket 3.4 15:05:29 44° N 15:05:29 44° N 15:08:18 10° NNW
Cosmos 1553 Rocket 3.9 15:02:05 10° NNW 15:08:27 71° ENE 15:14:49 10° SSE
SeaSat 1 2.3 15:08:33 51° ESE 15:09:46 78° NE 15:14:45 10° NW
Resurs 01 Rocket 4.1 15:13:00 11° N 15:13:00 11° N 15:13:08 10° N
Nadezhda 4 Rocket 4.0 15:05:15 10° SSW 15:11:37 86° WNW 15:17:58 10° NNE
Cosmos 1908 Rocket 4.4 15:08:24 10° NNW 15:12:44 52° W 15:17:00 10° S
USA 215 3.4 15:12:17 41° ESE 15:14:29 59° SSE 15:20:56 10° WSW
COSMO-SKYMED 1 3.2 15:15:58 44° SSE 15:15:58 44° SSE 15:19:04 10° S
Cosmos 1943 Rocket 2.1 15:09:03 10° NW 15:14:46 79° NE 15:16:18 50° ESE
Cosmos 2297 4.3 15:09:22 10° NW 15:15:00 58° WSW 15:20:34 10° SSE
Cosmos 1428 Rocket 4.5 15:11:09 10° S 15:17:11 56° E 15:19:15 39° NE
Cosmos 1980 3.7 15:12:26 10° SSW 15:17:56 55° ESE 15:18:06 55° ESE
Cosmos 2263 4.2 15:14:33 10° NW 15:20:21 66° NE 15:21:07 59° E
Cosmos 2251 Rocket 3.4 15:16:51 10° SSW 15:22:09 77° ESE 15:22:47 67° ENE
CSL-04 Rocket 4.0 15:20:55 10° S 15:26:09 63° WSW 15:31:28 10° NNW
Cosmos 1441 Rocket 4.2 15:22:58 10° NNW 15:26:44 46° W 15:30:17 11° S
YAOGAN 6 4.2 15:23:57 10° SSW 15:27:14 34° W 15:30:35 10° NNW
Cosmos 2315 Rocket 4.4 15:21:18 10° N 15:26:41 45° NE 15:26:41 45° NE
Lacrosse 4 Rocket 2.6 15:23:37 10° NW 15:26:21 32° NNW 15:26:21 32° NNW
Cosmos 841 Rocket 4.4 15:22:55 10° NNW 15:26:40 33° N 15:26:40 33° N
YAOGAN 1 3.3 15:26:40 10° S 15:30:54 52° W 15:35:11 10° NNW
COSMOS 2428 2.7 15:27:01 10° SW 15:32:44 78° NW 15:34:05 54° NNE
H-2A R/B 3.1 15:35:07 31° N 15:35:07 31° N 15:37:54 10° NNW
Cosmos 2344 4.1 15:25:21 10° WNW 15:33:56 86° SSW 15:39:30 35° ESE
Cosmos 2026 Rocket 3.7 15:28:00 10° S 15:34:01 75° E 15:36:37 36° NNE
CZ-4 R/B 2.8 15:33:58 10° SSW 15:37:34 36° W 15:41:11 10° NNW
NOSS 2-2 (D) 3.9 15:34:14 10° W 15:38:08 66° NNW 15:38:08 66° NNW
SPOT 3 Rocket 4.5 15:40:56 35° N 15:40:56 35° N 15:44:07 10° NNW
Cosmos 1417 Rocket 4.4 15:33:13 10° NNW 15:39:24 84° WSW 15:45:32 10° S
Lacrosse 5 rocket 3.3 15:39:17 10° SW 15:40:58 20° SSW 15:40:58 20° SSW
Meteor 2-9 Rocket 4.3 15:40:08 10° NNW 15:46:03 82° WSW 15:48:32 37° S
Cosmos 468 Rocket 4.4 15:42:04 10° NNW 15:46:05 51° N 15:46:05 51° N
Cosmos 1867 4.4 15:42:23 10° WNW 15:47:37 46° SW 15:49:20 35° S
Cosmos 883 Rocket 4.4 15:42:35 10° NNW 15:48:38 67° NE 15:48:38 67° NE
NOSS 3-1 (C) 3.9 15:42:45 10° WNW 15:49:38 78° SSW 15:51:54 50° SE
NOSS 2-3 (E) 4.4 15:44:27 10° WNW 15:50:13 86° NNE 15:50:59 72° ESE
Meteor 1-12 Rocket 4.2 15:44:33 10° NNW 15:50:34 85° ENE 15:50:50 81° SE
SL-4 R/B 4.3 15:48:04 10° SW 15:49:30 17° SSW 15:49:30 17° SSW
ARGOS 4.0 15:56:26 38° N 15:56:26 38° N 15:59:48 10° NNW
Cosmos 2322 4.4 15:51:07 10° WSW 15:56:40 49° NW 15:57:46 43° N
USA 229 DEB 3.9 15:50:08 10° WNW 15:57:11 73° SW 15:58:55 54° SSE
USA 229 3.9 15:50:15 10° WNW 15:57:17 73° SW 15:58:59 54° SSE
Cosmos 1627 Rocket 4.4 15:52:50 10° SSW 15:58:58 80° WNW 16:02:36 26° N
NOSS 2-3 (D) 4.4 15:55:11 10° WNW 16:00:57 89° NNE 16:01:18 82° ESE
NOSS 3-1 (A) 3.8 15:55:40 10° WNW 16:02:33 84° SSW 16:03:50 65° SE
NOSS 3-4 (A) 3.4 15:58:23 10° WSW 16:04:39 82° NNW 16:05:01 78° NNE
NOSS 3-4 (C) 3.4 15:58:29 10° WSW 16:04:45 82° NNW 16:05:07 78° NNE
COSMOS 2455 3.4 15:59:26 10° W 16:05:17 48° N 16:05:36 47° N
NOSS 0 Rocket 3.9 16:03:33 10° SW 16:09:48 84° NW 16:09:48 84° NW
Cosmos 2360 Rocket 3.2 16:05:43 10° W 16:10:59 37° NNW 16:11:40 36° N
Cosmos 2369 Rocket 2.5 16:07:10 10° NW 16:12:39 63° WSW 16:12:39 63° WSW
MOS 1 4.5 16:17:05 68° WSW 16:17:07 68° WSW 16:22:50 10° NNW
Cosmos 1980 Rocket 3.6 16:13:37 10° NW 16:18:02 29° N 16:18:02 29° N
SL-16 R/B 4.1 16:13:37 10° SSW 16:15:05 18° SSW 16:15:05 18° SSW
Ariane Rocket 3.9 16:23:17 45° WSW 16:23:33 46° W 16:28:26 10° NNW
Cosmos 2333 Rocket 2.9 16:19:04 10° WSW 16:24:40 50° NW 16:24:45 50° NNW
Cosmos 2237 Rocket 2.9 16:25:41 10° SW 16:29:56 50° WSW 16:29:56 50° WSW
Cosmos 2322 Rocket 3.6 16:31:57 10° WNW 16:36:28 30° NNW 16:36:28 30° NNW
ATLAS 2AS CENTAUR R/B 3.0 16:35:12 10° W 16:43:17 72° N 16:43:22 72° N
SL-16 R/B 3.7 16:38:54 10° WNW 16:43:07 29° NNW 16:43:07 29° NNW
Cosmos 2219 Rocket 3.3 16:42:20 10° W 16:46:57 40° NW 16:46:57 40° NW
SeaSat 1 4.1 16:48:20 30° W 16:48:20 30° W 16:52:09 10° NW
Cosmos 1697 Rocket 4.3 16:43:08 10° NW 16:46:14 27° NNW 16:46:14 27° NNW
USA 215 3.8 16:59:38 51° WSW 16:59:38 51° WSW 17:04:34 10° W
Cosmos 1943 Rocket 3.6 16:53:09 10° NW 16:57:51 33° WSW 16:57:51 33° WSW
H-2A R/B 4.2 17:15:45 20° NW 17:15:45 20° NW 17:17:26 10° NNW
COSMOS 2428 4.3 17:12:32 10° W 17:16:06 30° WNW 17:16:06 30° WNW
ATLAS 2AS CENTAUR R/B 4.4 18:26:53 10° WNW 18:30:47 32° WNW 18:30:47 32° WNW
